Location: Acts Church of Fort Worth
(32.6786°N, 97.2668°W)
Time: 21:45:09
(UTC+00:00)

GRACE-FO 2 - Pass Details

Date: 18 January 2026
Orbit: 448 x 461 km, 89.0° (Epoch: 12 February)

Event Time Altitude Azimuth Distance (km) Brightness Sun altitude
Rises 01:02:20 0° 2° (N) 2,493 8.0 -15.6°
Reaches altitude 10° 01:04:24 10° 4° (N) 1,614 7.0 -16.0°
Maximum altitude 01:07:54 80° 90° (E) 473 4.3 -16.7°
Drops below altitude 10° 01:11:22 10° 179° (S) 1,602 7.3 -17.4°
Sets 01:13:25 0° 180° (S) 2,471 8.3 -17.8°
